Flag for Norway Weather past 2 weeks in Orkanger/Fannrem, Norway

Now
60 °F

Cool.


Feels Like: 60 °F
Forecast: 61 / 81 °F
Wind: 5 mph from South

Location: Vinjeora Ii

Current Time: Aug 2, 2014 at 7:32:12 AM

Latest Report: Aug 2, 2014 at 6:00 AM


Visibility: N/A

Pressure: 29.81 "Hg

Humidity: 63%

Dew point: 47 °F

Location of Orkanger/FannremLocation

Historic Weather in Orkanger/Fannrem — Graph

°F

Orkanger/Fannrem temperature yesterday

Maximum temperature yesterday: 59 °F (at 3:00 PM)
Minimum temperature yesterday: 51 °F (at 11:00 PM)
Average temperature yesterday: 56 °F

Past Weeks' High & Low Weather Summary

 TemperatureHumidityPressure
High85 °F (Jul 21, 2:00 PM)93% (Jul 18, 7:00 AM)30.37 "Hg (Jul 18, 7:00 AM)
Low51 °F (Aug 2, 12:00 AM)29% (Jul 20, 2:00 PM)29.47 "Hg (Jul 31, 4:00 AM)
Average65 °F76%30.00 "Hg
* Reported Jul 18 6:00 AM — Aug 2 6:00 AM, Orkanger/Fannrem, Weather by CustomWeather, © 2014

Note: Actual official high and low records may vary slightly from our data, if they occured in-between our weather recording intervals... More about our weather records

Advertising

Orkanger/Fannrem weather history for previous 24 hours

 ConditionsComfort  
Time TempWeatherWind HumidityBarometerVisibility
6:00 AM
Aug 2
60 °FCool.5 mph63%29.81 "HgN/A
5:00 AM56 °FCool.2 mph74%29.81 "HgN/A
4:00 AM56 °FCool.3 mph88%29.82 "HgN/A
3:00 AM51 °FCool.2 mph93%29.83 "HgN/A
2:00 AM51 °FCool.1 mph92%29.84 "HgN/A
1:00 AM52 °FCool.1 mph91%29.85 "HgN/A
12:00 AM51 °FCool.1 mph91%29.86 "HgN/A
11:00 PM
Aug 1
51 °FCool.1 mph90%29.87 "HgN/A
10:00 PM54 °FCool.1 mph88%29.87 "HgN/A
9:00 PM55 °FCool.No wind86%29.85 "HgN/A
8:00 PM56 °FCool.No wind83%29.85 "HgN/A
7:00 PM56 °FCool.2 mph79%29.84 "HgN/A
6:00 PM57 °FCool.2 mph78%29.84 "HgN/A
5:00 PM58 °FCool.2 mph77%29.82 "HgN/A
4:00 PM58 °FCool.3 mph76%29.81 "HgN/A
3:00 PM59 °FCool.2 mph75%29.79 "HgN/A
2:00 PM59 °FCool.2 mph77%29.78 "HgN/A
1:00 PM58 °FCool.1 mph79%29.77 "HgN/A
12:00 PM57 °FCool.1 mph80%29.76 "HgN/A
11:00 AM56 °FCool.1 mph83%29.75 "HgN/A
10:00 AM55 °FCool.1 mph85%29.73 "HgN/A
9:00 AM55 °FCool.1 mph88%29.72 "HgN/A
8:00 AM53 °FCool.1 mph90%29.71 "HgN/A
7:00 AM54 °FCool.2 mph90%29.69 "HgN/A
Weather by CustomWeather, © 2014

See weather overviewHow to use our weather pages